Olympia, WA

1:17 PM PDT on April 21, 2018 (GMT -0700)
Olympia

Weather History for KOLM - February, 2014

Change the Weather History Date:

Saturday, February 1, 2014

  Actual Average Record
Temperature  
Mean Temperature 40 °F 40 °F  
Max Temperature 46 °F 48 °F 67 °F (1962)
Min Temperature 34 °F 33 °F -1 °F (1950)
Degree Days  
Heating Degree Days 25 25  
Month to date heating degree days 25 25  
Since 1 July heating degree days 3070 3076  
Cooling Degree Days 0 0  
Month to date cooling degree days 0 0  
Year to date cooling degree days 0 0  
Moisture  
Dew Point 37 °F    
Average Humidity 88    
Maximum Humidity 100    
Minimum Humidity 76    
Precipitation  
Precipitation 0.08 in 0.20 in 1.41 in (2000)
Month to date precipitation 0.08 0.20  
Year to date precipitation 4.77 8.04  
Sea Level Pressure  
Sea Level Pressure 30.13 in    
Wind  
Wind Speed 1 mph (West)    
Max Wind Speed 8 mph    
Max Gust Speed 9 mph    
Visibility 4 miles    
Events Fog , Rain    
T = Trace of Precipitation, MM = Missing Value Source: NWS Daily Summary

Daily Weather History Graph

Daily Weather History Graph

Search for Another Location

Airport or City:

Astronomy

Feb. 01, 2014 Rise Set
Actual Time 7:36 AM PST 5:14 PM PST
Civil Twilight 7:03 AM PST 5:47 PM PST
Nautical Twilight 6:27 AM PST 6:23 PM PST
Astronomical Twilight 5:51 AM PST 6:59 PM PST
Moon 8:17 AM PST (2/1) 8:10 PM PST (2/1)
Length of Visible Light 10h 43m
Length of Day
9h 38m
Waxing Crescent, 5% of the Moon is Illuminated
Feb 1
Waxing Crescent
Feb 6
First Quarter
Feb 14
Full
Feb 22
Last Quarter
Mar 1
New

Hourly Weather History & Observations

Time (PST) Temp. Windchill Dew Point Humidity Pressure Visibility Wind Dir Wind Speed Gust Speed Precip Events Conditions
12:54 AM 39.0 °F - 37.9 °F 96% 30.18 in 9.0 mi Calm Calm - 0.00 in Rain Light Rain
1:01 AM 39.0 °F - 37.9 °F 96% 30.17 in 10.0 mi Calm Calm - 0.00 in   Overcast
1:54 AM 39.0 °F - 37.9 °F 96% 30.18 in 5.0 mi Calm Calm - 0.00 in Rain Light Rain
2:54 AM 39.0 °F - 37.9 °F 96% 30.18 in 4.0 mi Calm Calm - 0.02 in Rain Light Rain
3:37 AM 37.9 °F 35.5 °F 37.9 °F 100% 30.18 in 5.0 mi West 3.5 mph - 0.00 in   Overcast
3:54 AM 37.9 °F - 37.9 °F 100% 30.18 in 5.0 mi Calm Calm - 0.00 in   Overcast
4:54 AM 39.0 °F - 37.9 °F 96% 30.19 in 6.0 mi Calm Calm - N/A   Overcast
5:06 AM 39.0 °F - 37.9 °F 96% 30.18 in 6.0 mi Calm Calm - N/A   Overcast
5:34 AM 39.0 °F - 37.9 °F 96% 30.17 in 4.0 mi Calm Calm - N/A   Overcast
5:42 AM 39.0 °F - 37.9 °F 96% 30.17 in 1.8 mi Calm Calm - N/A   Overcast
5:54 AM 39.0 °F - 37.9 °F 96% 30.18 in 1.8 mi Calm Calm - 0.00 in Rain Light Rain
6:03 AM 39.0 °F - 37.9 °F 96% 30.17 in 2.5 mi Calm Calm - 0.00 in Rain Light Rain
6:10 AM 37.9 °F 35.5 °F 37.9 °F 100% 30.17 in 2.5 mi WSW 3.5 mph - 0.00 in Rain Light Rain
6:26 AM 37.9 °F - 37.9 °F 100% 30.17 in 3.0 mi Calm Calm - 0.00 in   Overcast
6:37 AM 37.9 °F - 37.9 °F 100% 30.17 in 2.0 mi Calm Calm - 0.00 in   Overcast
6:54 AM 37.9 °F 35.5 °F 37.9 °F 100% 30.18 in 5.0 mi WSW 3.5 mph - 0.00 in   Overcast
7:01 AM 37.9 °F 34.4 °F 37.9 °F 100% 30.17 in 5.0 mi WSW 4.6 mph - N/A   Overcast
7:31 AM 39.0 °F - 37.9 °F 96% 30.18 in 6.0 mi Calm Calm - N/A   Overcast
7:54 AM 39.0 °F - 37.9 °F 96% 30.18 in 2.0 mi Calm Calm - N/A   Overcast
8:54 AM 39.0 °F - 37.9 °F 96% 30.19 in 3.0 mi Calm Calm - 0.00 in   Overcast
9:54 AM 39.9 °F 36.7 °F 37.9 °F 93% 30.19 in 4.0 mi SW 4.6 mph - N/A   Overcast
10:54 AM 41.0 °F 38.0 °F 39.0 °F 93% 30.19 in 6.0 mi WSW 4.6 mph - N/A   Overcast
11:07 AM 41.0 °F 38.0 °F 37.9 °F 89% 30.18 in 9.0 mi West 4.6 mph - N/A   Overcast
11:54 AM 42.1 °F 40.2 °F 39.0 °F 89% 30.17 in 10.0 mi West 3.5 mph - N/A   Overcast
12:54 PM 44.1 °F - 37.9 °F 79% 30.15 in 10.0 mi Calm Calm - N/A   Overcast
1:54 PM 44.1 °F - 37.0 °F 76% 30.13 in 10.0 mi Calm Calm - N/A   Overcast
2:54 PM 45.0 °F 41.2 °F 39.0 °F 80% 30.13 in 10.0 mi NNE 6.9 mph - N/A   Overcast
3:54 PM 43.0 °F - 39.9 °F 89% 30.13 in 10.0 mi Calm Calm - 0.06 in Rain Light Rain
4:54 PM 42.1 °F 39.2 °F 39.9 °F 92% 30.12 in 10.0 mi NNE 4.6 mph - 0.00 in   Mostly Cloudy
5:54 PM 39.0 °F - 37.9 °F 96% 30.11 in 9.0 mi Calm Calm - N/A   Overcast
6:54 PM 41.0 °F 39.0 °F 39.0 °F 93% 30.10 in 9.0 mi North 3.5 mph - N/A   Overcast
7:54 PM 36.0 °F - 36.0 °F 100% 30.10 in 4.0 mi Calm Calm - N/A   Overcast
8:19 PM 36.0 °F - 36.0 °F 100% 30.09 in 1.8 mi Calm Calm - N/A   Overcast
8:24 PM 37.0 °F - 37.0 °F 100% 30.09 in 0.8 mi Calm Calm - N/A   Overcast
8:54 PM 36.0 °F - 36.0 °F 100% 30.09 in 0.5 mi Calm Calm - N/A Fog Fog
9:34 PM 37.0 °F 34.5 °F 37.0 °F 100% 30.08 in 1.5 mi NNE 3.5 mph - N/A   Overcast
9:41 PM 37.0 °F - 37.0 °F 100% 30.08 in 3.0 mi Calm Calm - N/A   Overcast
9:48 PM 37.4 °F - 37.4 °F 100% 30.08 in 1.8 mi Calm Calm - N/A   Overcast
9:54 PM 37.0 °F - 37.0 °F 100% 30.09 in 1.0 mi Calm Calm - N/A   Overcast
10:00 PM 37.9 °F - 37.0 °F 97% 30.08 in 2.0 mi Calm Calm - N/A   Overcast
10:10 PM 37.0 °F - 37.0 °F 100% 30.08 in 1.2 mi Calm Calm - N/A   Overcast
10:18 PM 36.0 °F - 36.0 °F 100% 30.08 in 0.5 mi Calm Calm - N/A Fog Fog
10:25 PM 37.0 °F - 36.0 °F 96% 30.08 in 0.5 mi Calm Calm - N/A Fog Fog
10:40 PM 36.0 °F - 35.1 °F 97% 30.07 in 1.5 mi Calm Calm - N/A   Overcast
10:46 PM 36.0 °F - 36.0 °F 100% 30.07 in 2.0 mi Calm Calm - N/A   Overcast
10:50 PM 35.6 °F - 35.6 °F 100% 30.07 in 1.2 mi Calm Calm - N/A   Overcast
10:54 PM 34.0 °F - 34.0 °F 100% 30.08 in 1.0 mi Calm Calm - N/A   Overcast
11:10 PM 35.1 °F - 35.1 °F 100% 30.07 in 0.5 mi Calm Calm - N/A Fog Fog
11:34 PM 36.0 °F - 36.0 °F 100% 30.08 in 0.2 mi Calm Calm - N/A Fog Fog
11:43 PM 36.0 °F - 36.0 °F 100% 30.07 in 0.5 mi Calm Calm - N/A Fog Fog
11:52 PM 35.6 °F - 35.6 °F 100% 30.07 in 0.8 mi Calm Calm - N/A   Overcast
11:54 PM 36.0 °F - 36.0 °F 100% 30.08 in 0.8 mi Calm Calm - N/A   Overcast